Theta_e
312 314 313 313 314 312 311 312 312 312 314 314 314 314 315 318 320 322 322 321 324 326 324 323 324 323 323 323 323 323 323 323 323 322 322 322 322 323 325 326 327 328 328 327 329 332 337 341 344 346 347 348 349 349 349 350 350 349 349 349 349 349 348 348 348 348 349 348 348 349 348 349 349 349 349 348 346 342 336 332 328 328 329 329 329 329 329
311 312 312 312 313 312 313 314 314 313 314 313 313 314 314 314 317 320 318 320 327 324 320 322 323 322 322 321 321 322 322 322 322 322 322 322 321 321 322 323 324 326 327 328 327 327 330 335 339 342 345 346 348 349 350 350 350 350 350 350 350 349 349 349 349 349 349 349 349 349 349 349 350 350 350 349 349 347 344 340 335 331 329 328 328 328 328
312 312 314 313 312 313 313 314 314 313 312 313 311 311 313 313 315 318 315 320 328 323 318 321 321 320 320 319 319 320 320 321 322 321 322 322 321 320 320 321 322 324 325 327 327 327 327 328 331 336 341 344 345 348 349 350 350 350 351 351 350 350 350 350 350 350 350 350 350 350 350 350 351 351 351 351 350 350 348 347 344 340 337 333 331 329 328
313 312 314 315 313 313 313 316 318 316 315 316 316 316 317 317 318 320 319 322 327 322 318 320 319 318 319 317 317 317 317 318 319 320 321 321 321 319 319 320 321 322 323 324 325 326 327 327 327 329 334 340 342 345 347 349 350 350 351 351 351 351 351 351 351 351 351 350 350 351 350 351 351 351 351 351 351 351 351 350 349 347 346 343 340 337 335
316 313 315 316 313 312 315 318 320 320 320 321 321 322 323 322 321 324 324 323 323 319 318 320 319 318 318 317 316 315 315 315 316 317 318 318 319 319 318 319 320 321 322 322 323 325 326 328 327 326 328 334 338 341 344 347 349 350 351 351 352 352 352 352 351 351 352 351 351 351 352 352 352 352 352 352 352 352 352 351 350 350 349 348 347 346 345
317 315 317 317 315 314 314 315 316 318 320 321 320 321 323 322 321 324 324 321 319 317 318 319 318 317 317 317 316 315 315 314 314 314 314 315 317 317 317 318 319 320 321 322 323 324 326 327 327 326 326 328 331 335 338 343 348 349 350 351 351 352 352 352 352 352 352 352 352 352 352 352 353 352 352 352 353 352 352 352 351 351 351 351 351 350 349
315 317 320 318 316 315 312 311 314 315 316 319 321 322 324 322 320 322 322 319 318 316 316 317 316 315 315 316 316 316 315 314 313 312 312 313 314 316 316 317 318 319 321 322 322 323 324 326 327 327 326 326 327 329 333 338 344 347 349 351 351 352 353 352 353 352 352 353 352 352 353 352 353 353 352 353 353 353 353 352 352 352 352 352 351 351 352
314 316 318 315 313 313 313 313 315 315 318 320 320 321 323 321 318 320 321 318 315 315 315 315 314 314 314 315 316 316 315 314 312 312 311 311 312 314 315 316 316 318 319 321 322 322 323 325 326 327 327 326 326 326 328 333 339 344 347 350 351 353 353 353 353 353 353 353 353 353 353 353 353 353 353 354 353 353 353 353 353 353 353 353 353 353 353
314 315 315 315 314 314 316 317 316 315 317 318 317 320 322 317 314 316 318 316 314 314 314 314 313 313 315 317 317 316 316 314 312 311 311 310 311 312 313 314 315 316 317 319 321 322 323 324 325 326 327 326 326 326 327 330 335 341 345 348 350 352 353 354 354 354 353 353 353 354 353 353 354 354 354 354 353 354 354 353 353 354 354 354 355 355 355
316 315 315 318 320 319 318 317 315 314 313 313 314 319 321 315 311 313 315 315 313 313 313 313 313 313 317 322 320 317 314 313 311 311 311 311 310 310 311 312 313 314 316 317 319 321 322 323 323 325 327 326 326 326 326 327 332 336 341 345 347 350 352 354 355 355 355 354 354 354 354 354 354 354 354 355 354 354 354 355 355 355 355 356 356 356 356
316 315 316 318 319 319 319 317 314 312 312 312 313 316 318 314 310 312 313 313 312 313 313 313 312 313 317 320 318 314 312 312 311 311 311 310 310 310 310 310 311 312 314 315 317 319 321 323 323 324 326 326 326 326 326 327 330 332 335 339 343 347 349 351 354 355 356 356 355 355 355 355 355 355 355 355 355 355 355 355 356 356 356 357 356 357 357
316 314 316 316 314 315 318 317 314 311 312 313 315 317 318 314 310 312 313 312 312 312 312 311 312 313 315 315 313 312 311 311 311 310 311 310 310 310 310 310 310 310 312 314 316 317 319 322 322 322 324 326 326 327 328 328 329 330 331 334 338 342 345 348 351 352 354 356 356 357 357 357 357 357 357 357 356 356 357 357 357 357 357 357 357 358 358
315 315 315 314 313 316 317 315 313 312 312 314 316 317 315 312 311 311 311 312 311 311 310 311 311 312 312 312 311 311 311 310 310 310 310 310 310 309 310 310 310 310 310 312 313 315 317 320 321 321 323 325 326 327 329 330 330 329 330 332 334 337 340 343 347 350 351 353 355 356 357 357 358 358 358 358 358 358 358 358 358 358 358 358 358 358 358
313 315 314 312 313 315 314 312 311 311 314 316 316 314 311 310 311 311 310 311 310 309 309 309 309 309 310 309 309 310 309 309 310 310 309 309 309 309 309 310 309 309 310 310 311 313 315 318 319 320 321 323 325 327 329 330 331 329 328 330 332 334 335 338 342 346 348 350 351 353 355 356 356 357 357 357 358 358 358 359 359 359 358 358 358 358 358
312 312 311 312 316 315 311 312 313 313 315 317 314 310 310 310 310 310 309 309 309 308 308 307 307 307 307 307 308 308 308 308 308 308 308 308 309 309 309 309 309 309 309 310 310 311 313 315 318 319 320 321 324 325 328 330 330 328 327 329 330 332 334 336 338 340 344 347 349 351 353 354 355 355 356 356 356 356 357 357 357 357 357 357 357 358 358
312 313 311 312 315 312 309 312 314 313 313 313 311 309 310 310 309 309 309 308 307 307 306 306 306 307 306 307 307 307 307 307 307 307 307 307 308 308 308 309 309 309 309 310 310 311 311 313 315 317 318 320 322 324 326 329 330 329 328 328 329 331 334 335 336 337 340 344 347 348 351 353 354 355 355 355 355 355 355 356 356 356 356 356 357 357 357
313 314 314 311 310 310 310 310 311 310 309 310 309 310 310 309 309 309 308 307 307 306 306 306 306 306 306 306 307 306 307 306 306 307 307 307 307 308 308 308 308 308 308 309 310 311 311 311 313 315 317 319 321 323 325 327 329 330 328 325 325 329 334 335 335 336 338 341 345 347 349 351 353 356 356 356 356 355 355 355 355 355 355 356 355 356 355
310 311 311 308 307 309 310 309 309 309 309 310 310 310 309 309 310 309 308 307 307 306 306 306 306 306 306 306 306 306 305 305 305 306 306 306 306 307 307 307 308 308 308 309 309 310 311 311 312 314 316 318 320 322 324 325 327 330 330 326 323 328 334 335 335 336 336 337 342 346 348 349 351 353 355 357 358 357 357 355 355 354 354 354 354 354 354
311 312 311 307 307 309 309 308 309 309 309 309 309 308 308 308 308 308 307 307 306 306 306 306 306 306 305 305 305 305 305 305 305 305 305 305 306 306 306 307 307 307 308 308 309 310 311 312 312 313 315 317 318 321 323 324 325 328 331 332 329 330 334 335 335 337 338 339 340 342 346 349 350 351 353 356 357 358 358 358 356 355 355 354 354 355 354
310 312 311 307 307 309 308 308 309 309 308 308 307 307 308 308 308 308 307 306 307 306 306 306 306 306 305 305 305 305 305 305 305 305 305 306 306 306 306 306 307 306 307 308 309 309 311 312 312 313 315 316 318 320 322 323 324 326 329 331 333 334 335 335 335 336 338 341 342 342 344 346 349 350 351 353 355 357 357 357 357 356 355 354 354 355 355
310 311 310 307 308 309 309 308 309 308 308 308 307 307 307 307 307 307 306 307 307 306 306 306 305 305 305 305 305 305 305 305 305 306 306 306 306 306 306 306 306 306 307 308 308 308 310 311 311 312 314 316 317 320 321 322 323 325 329 331 333 334 336 336 335 335 337 339 342 344 345 346 349 350 350 351 353 354 355 355 355 355 354 355 354 353 353
312 311 310 309 310 311 310 308 308 308 307 307 307 307 307 307 307 307 307 307 307 306 306 306 305 305 305 305 305 305 305 305 305 306 306 305 305 305 306 306 306 306 307 307 308 308 309 310 311 312 314 315 317 319 321 321 322 325 329 331 332 334 335 336 336 336 336 337 339 343 346 347 349 351 350 351 352 353 353 354 355 355 354 354 353 353 352
312 310 309 309 309 310 309 308 308 308 307 307 307 307 307 307 307 307 307 307 306 306 306 306 305 305 305 304 305 305 304 305 305 305 305 305 305 305 306 306 306 306 307 308 308 308 309 310 311 312 314 315 316 319 321 321 321 325 329 331 332 334 334 335 336 337 337 337 338 341 345 347 350 352 352 352 353 353 353 353 354 355 355 356 355 354 353
310 310 310 309 308 309 309 309 308 308 307 307 307 307 307 307 307 307 307 306 306 306 306 305 305 305 304 304 304 304 304 305 305 305 305 305 305 306 306 306 306 307 307 307 308 308 309 309 311 313 314 315 316 318 320 321 321 325 330 331 333 334 334 335 336 338 339 339 339 340 343 346 351 354 355 354 353 353 354 355 356 356 356 357 358 358 356
310 311 311 310 309 310 309 308 308 308 307 307 307 307 307 307 307 307 306 306 306 306 306 305 305 304 304 304 304 304 304 304 304 305 305 305 305 306 306 306 306 307 307 307 308 308 309 309 311 313 315 315 316 318 320 320 321 324 329 332 333 335 335 335 336 338 339 340 341 342 342 344 348 353 356 358 358 356 356 355 357 358 358 358 359 358 358
311 311 310 310 309 309 309 308 308 308 308 307 307 307 307 307 307 307 306 306 306 306 305 305 305 304 304 304 304 304 304 304 304 305 305 305 305 305 306 306 306 306 307 307 308 308 309 310 312 314 315 315 317 319 320 319 321 325 329 332 334 335 336 336 336 338 339 341 342 343 343 343 345 350 354 357 359 360 359 356 355 357 359 359 358 358 357
311 311 310 309 309 309 309 309 308 308 308 307 307 307 307 307 307 306 306 306 306 305 305 305 304 304 304 304 304 304 304 304 304 305 305 305 305 305 305 306 306 306 307 307 307 308 309 310 312 314 316 316 317 319 320 319 321 326 330 332 334 336 336 336 337 338 339 341 341 342 343 343 343 346 350 353 357 360 361 359 357 357 359 359 359 358 356
310 310 310 309 309 310 309 308 308 308 307 307 307 307 307 306 306 306 306 306 305 305 305 305 304 304 303 303 303 303 303 303 304 304 305 305 305 305 306 306 306 306 307 307 308 308 309 310 312 315 316 316 318 319 319 318 321 327 331 333 334 335 335 337 338 339 340 340 341 341 342 342 343 343 346 351 355 358 360 361 360 360 360 361 361 360 358
310 310 310 310 309 309 308 308 308 308 308 307 307 306 306 306 306 306 306 305 305 305 305 304 304 303 303 303 303 303 304 304 304 305 305 306 306 306 306 306 306 307 308 308 309 310 310 310 312 315 317 317 318 319 318 319 323 328 331 332 333 334 335 336 337 338 339 340 340 341 341 342 343 343 344 349 354 358 360 360 361 361 361 362 362 362 360
310 309 309 309 308 308 308 308 308 308 307 307 307 306 306 306 306 306 306 305 305 305 304 304 304 303 303 303 304 305 305 306 306 307 307 307 307 307 307 307 307 308 308 309 310 310 310 311 313 316 318 318 318 318 318 319 324 328 330 331 331 333 335 336 336 337 338 339 340 341 341 342 343 344 344 347 352 358 360 360 361 361 362 363 363 362 361
310 309 309 308 308 308 308 308 307 306 306 306 306 306 306 306 306 305 305 305 305 304 304 304 303 303 303 303 304 306 306 307 307 308 308 308 308 308 308 308 308 308 308 309 309 310 311 312 314 317 319 318 317 317 317 319 323 328 330 330 329 331 335 336 336 336 337 338 339 341 341 342 344 345 345 346 350 355 358 360 360 361 361 362 363 363 362
309 309 308 308 308 308 307 306 306 305 305 306 306 306 306 306 306 305 305 305 305 304 303 303 303 303 303 304 305 306 307 307 308 308 309 309 309 309 308 308 308 308 309 309 309 310 311 313 316 318 318 318 317 316 316 318 323 328 329 329 329 331 335 335 335 336 337 337 338 340 340 342 343 344 345 346 348 352 355 357 358 359 359 360 362 363 363
309 308 308 307 307 306 306 306 306 306 306 306 306 306 306 306 306 305 305 305 304 303 303 303 303 303 304 305 305 306 306 307 307 308 309 310 310 309 310 310 309 309 310 310 310 311 312 314 317 318 318 317 316 316 317 320 325 328 329 329 330 333 334 334 334 335 335 336 338 339 340 342 343 344 344 345 347 350 353 355 355 356 356 358 359 361 361
308 307 307 306 306 306 306 306 306 306 306 306 306 306 306 306 306 305 305 305 304 303 303 303 303 303 304 305 305 305 305 306 307 308 310 311 311 310 311 311 310 310 311 311 311 312 314 315 317 319 318 317 316 316 317 321 325 327 329 330 331 331 332 333 333 333 333 334 336 337 339 341 343 343 343 344 345 346 349 352 354 355 355 356 357 357 358
307 307 307 306 306 306 305 305 305 305 305 306 306 306 306 306 305 305 305 304 304 303 303 303 303 303 304 305 305 304 305 305 306 308 311 313 313 312 312 312 311 311 311 312 313 314 315 316 318 319 318 318 317 316 318 321 324 327 329 330 330 331 332 333 332 332 332 333 334 335 337 340 341 342 343 343 343 345 346 348 351 352 353 354 355 355 355
307 307 306 306 305 305 304 304 305 305 305 306 306 306 306 305 305 305 305 304 303 303 303 303 303 303 303 304 303 303 304 305 306 308 310 313 314 314 313 312 312 312 312 313 314 315 315 316 317 318 318 318 317 318 319 322 324 327 329 329 329 330 332 331 331 331 331 331 332 333 335 336 339 341 342 343 344 345 346 347 348 349 351 352 353 353 354
307 306 306 305 305 304 304 304 305 305 305 306 306 306 305 305 305 305 304 303 303 303 303 303 302 302 303 303 303 302 303 304 306 307 308 310 312 313 314 314 314 314 314 315 315 315 316 317 318 318 318 317 317 318 320 322 324 327 328 327 328 329 330 330 330 330 329 329 330 330 331 333 335 337 340 342 343 344 345 346 348 348 349 350 351 352 352
307 306 305 305 304 303 304 304 305 305 305 305 305 305 305 305 305 304 304 303 303 303 303 303 302 303 303 302 302 302 302 303 304 306 307 308 309 311 312 313 313 313 314 314 315 316 317 317 318 318 318 317 317 318 320 321 324 326 327 326 326 327 327 328 329 328 328 328 328 327 327 328 330 332 335 337 340 341 342 345 346 347 347 348 349 350 351
306 306 305 304 303 303 303 304 304 305 305 305 305 305 304 304 304 304 304 303 303 303 303 302 302 303 303 302 302 302 302 302 303 303 305 306 307 308 309 309 309 309 310 311 313 315 317 316 317 317 316 317 317 318 319 321 323 325 325 324 323 324 325 326 327 327 328 327 326 325 325 325 327 328 330 333 335 336 338 340 342 344 345 345 345 345 346
306 305 304 303 303 303 303 304 305 305 305 305 305 304 304 304 304 304 303 303 303 303 303 302 302 302 302 301 301 301 301 302 302 302 303 304 305 306 307 307 307 308 308 309 311 314 315 315 315 315 316 317 318 318 319 319 321 322 322 322 321 323 325 326 326 326 326 327 326 325 324 324 324 325 327 329 330 332 333 335 337 339 341 341 341 340 341
306 305 304 303 303 302 303 304 305 305 305 305 304 304 304 304 305 304 303 303 303 303 302 302 302 301 301 300 300 300 301 301 302 302 302 303 303 304 304 305 306 307 307 308 310 312 313 313 313 314 315 317 317 317 318 319 319 320 320 320 321 323 325 325 326 326 325 325 325 324 323 323 323 323 324 326 328 329 330 332 334 335 337 337 337 336 337
306 305 304 303 303 303 303 304 305 305 305 304 303 303 304 304 304 304 303 303 303 302 301 301 301 300 300 299 299 300 300 301 301 302 302 302 302 302 303 303 304 305 306 307 309 310 311 312 312 313 314 315 316 317 318 318 319 320 320 320 321 323 324 325 324 324 323 323 323 322 322 321 321 321 322 324 326 326 327 328 329 330 331 333 333 333 334
305 304 304 303 303 303 304 305 305 304 304 303 302 303 304 304 304 303 302 302 302 301 301 300 300 299 299 299 299 299 299 300 301 301 301 301 301 302 302 302 302 303 305 306 307 309 310 310 311 312 313 314 315 316 317 317 318 319 320 320 321 322 322 321 321 320 320 320 320 320 319 319 319 319 320 321 323 324 324 324 324 324 326 327 328 328 329
305 304 304 303 302 302 303 304 304 303 303 303 302 303 304 304 304 303 302 302 301 301 300 300 300 299 299 299 299 298 298 298 299 300 301 301 301 301 301 302 302 302 303 305 305 306 307 309 310 311 311 313 314 315 315 316 317 318 319 320 321 320 319 318 317 317 318 318 317 317 317 317 317 317 317 318 320 321 322 322 321 321 321 322 323 324 324
304 304 303 303 302 302 303 304 303 303 303 302 303 304 304 304 303 303 302 301 301 301 300 300 300 299 299 299 299 298 298 297 298 299 299 300 300 300 301 301 301 301 302 303 304 304 305 306 308 309 310 311 312 313 314 315 316 317 318 319 319 319 318 316 315 315 315 316 315 315 315 315 315 315 315 316 317 318 318 319 319 318 318 317 318 319 320
304 303 303 303 302 302 302 303 303 303 303 302 303 304 304 304 303 302 302 301 301 301 300 300 300 299 299 299 299 298 298 297 297 297 298 299 299 299 300 300 301 301 301 302 302 303 304 305 306 308 309 309 311 312 313 313 314 315 316 316 316 317 316 314 313 313 313 313 313 314 313 313 312 312 312 313 314 314 315 316 316 316 315 314 314 315 316
303 303 302 302 302 302 302 302 302 302 303 303 304 304 304 303 303 302 301 301 301 301 300 300 300 299 299 299 298 298 298 298 297 297 297 297 298 299 299 300 300 300 301 301 301 302 303 304 305 305 307 308 309 310 311 311 311 312 313 313 313 313 313 312 311 311 311 311 311 311 311 311 310 310 310 311 311 312 312 313 313 313 312 312 311 311 312
303 302 302 302 301 301 301 302 302 302 303 304 304 304 303 303 303 302 301 301 301 301 300 300 300 300 299 299 298 298 298 298 297 297 297 297 298 299 299 299 299 300 300 301 301 301 302 303 303 304 305 306 307 308 309 309 310 310 310 310 310 310 310 310 310 309 309 309 310 310 310 310 309 309 309 310 310 310 310 311 311 311 311 310 310 310 310
302 302 302 301 301 301 301 301 302 302 303 304 304 304 303 303 302 302 301 301 301 300 300 300 300 299 299 299 299 298 298 298 297 297 296 296 297 298 298 298 298 299 299 300 300 301 301 302 302 303 304 305 305 306 307 308 308 307 307 308 308 308 308 308 308 308 308 308 308 308 309 309 308 308 308 308 308 307 307 308 308 308 308 308 307 307 307
302 302 302 301 301 301 301 301 302 303 303 304 304 304 304 303 302 301 301 301 300 300 300 300 299 299 299 299 299 299 298 298 298 297 297 296 296 297 297 297 297 298 298 299 300 300 300 301 301 302 303 303 304 304 305 306 306 306 306 306 306 306 306 307 307 308 308 307 307 307 307 306 306 305 305 304 304 304 304 304 304 304 305 306 305 305 305
302 302 302 301 301 301 301 301 302 303 303 303 303 303 303 302 302 301 301 300 300 300 300 299 299 299 299 299 299 299 298 299 299 298 298 297 296 296 296 296 296 297 297 298 298 299 299 299 300 301 302 302 303 303 304 304 305 304 304 304 304 305 306 306 306 306 307 307 307 306 305 304 304 303 302 302 302 302 301 301 301 301 302 303 303 303 303
303 302 302 302 301 301 301 301 302 302 303 303 303 303 303 302 301 301 301 300 300 300 300 300 299 299 299 299 299 298 298 298 298 298 298 298 297 296 296 296 296 296 296 297 297 297 298 298 298 299 300 300 301 301 302 303 303 303 303 303 303 304 304 304 304 304 304 305 305 305 304 303 303 302 301 300 300 300 299 299 299 299 299 299 300 300 299
Wind_Speed
2 1 1 2 2 1 3 3 4 5 4 3 1 2 3 4 4 3 5 3 4 2 4 6 6 6 6 8 12 14 15 18 21 23 25 28 33 34 34 34 34 34 34 34 34 31 27 21 14 8 5 9 16 21 24 28 32 35 38 40 41 42 43 43 43 42 41 40 40 39 38 37 36 35 35 35 35 36 37 38 38 38 38 37 36 36 35
3 3 2 2 3 2 3 4 5 6 5 4 4 3 3 4 4 5 4 3 5 2 3 4 6 7 7 8 11 15 17 18 20 22 24 26 29 31 31 32 32 31 30 30 31 31 29 26 21 16 11 5 5 13 19 23 27 30 34 38 40 41 42 43 42 41 41 41 40 40 39 38 37 36 35 34 34 35 35 36 37 38 38 38 38 38 37
2 3 3 2 1 2 4 5 5 5 5 5 3 3 2 2 2 4 2 4 4 1 4 5 7 9 9 11 13 15 17 17 18 21 23 24 27 30 30 30 30 29 28 27 27 28 28 28 26 21 16 12 7 2 11 18 23 27 30 34 38 41 41 42 42 41 41 41 40 40 39 38 37 36 35 35 34 34 34 34 35 36 37 38 39 38 38
2 3 3 4 3 1 1 3 4 3 2 2 2 1 0 1 1 1 1 2 3 2 5 5 6 8 10 11 13 14 16 18 18 20 21 22 25 28 29 29 29 28 27 26 26 25 25 25 26 24 20 16 12 7 3 10 17 23 28 31 35 39 41 40 40 41 40 40 40 40 39 38 37 36 36 36 35 35 34 33 33 34 35 36 37 37 38
2 3 4 4 3 4 2 2 3 3 3 3 3 2 2 2 2 3 2 3 3 2 4 4 4 5 7 9 11 14 16 19 20 20 21 21 23 25 26 27 27 27 26 25 24 23 22 22 22 22 22 19 16 13 9 6 10 17 23 28 32 37 39 40 40 40 39 40 40 39 39 38 37 36 36 36 35 35 34 34 33 34 33 34 34 35 36
2 5 4 2 3 2 2 4 2 2 3 3 3 4 2 2 1 2 3 2 1 1 3 3 4 6 4 5 8 12 15 19 21 22 22 22 22 22 23 24 25 25 24 23 21 19 20 20 19 18 19 19 18 16 14 10 8 12 18 23 27 32 37 39 40 39 39 39 39 38 37 37 37 36 35 35 34 34 33 34 34 34 33 33 34 34 34
1 3 3 4 1 3 5 5 4 4 2 2 3 5 3 2 2 2 3 2 1 2 4 4 5 10 9 3 2 9 15 18 21 23 23 22 21 21 22 22 23 22 22 22 20 18 17 18 18 17 17 17 17 18 18 15 11 10 13 16 20 24 30 36 38 39 39 38 38 38 37 36 37 36 36 34 33 33 33 33 33 32 32 33 33 33 34
0 2 3 2 2 5 5 5 5 4 3 1 2 4 3 1 2 2 2 1 4 6 8 8 10 14 12 6 5 3 13 19 22 23 24 24 22 21 20 21 22 22 21 20 20 19 16 16 17 17 16 16 16 17 20 19 14 10 10 12 14 17 22 29 34 37 38 38 38 37 36 37 37 37 36 35 33 32 32 33 32 32 33 33 33 33 33
1 2 0 1 1 4 4 4 3 1 1 1 1 0 3 1 4 3 1 2 6 8 10 12 17 17 10 4 7 4 12 21 23 23 24 24 23 22 21 20 20 21 20 19 18 18 16 14 16 17 16 16 15 15 19 21 16 9 7 8 11 14 16 21 28 33 36 37 38 38 37 38 38 37 36 35 34 33 33 32 32 32 32 32 32 32 32
2 3 1 2 3 2 3 4 4 2 2 3 4 2 3 2 5 5 3 3 6 9 11 15 19 16 7 0 3 8 17 25 26 26 26 25 24 24 23 23 22 21 21 21 19 18 16 14 14 15 16 16 15 14 17 19 17 12 9 8 8 12 15 17 22 28 32 35 37 38 38 39 38 37 37 35 34 34 33 32 32 31 32 32 33 33 33
2 4 2 1 1 3 5 6 5 3 3 3 2 1 2 1 5 6 4 4 6 7 9 13 15 11 4 2 6 15 24 27 28 29 29 27 26 26 25 25 25 23 23 23 21 19 16 14 14 15 16 16 15 14 15 16 16 14 12 10 9 10 14 17 19 23 28 32 34 36 37 38 38 38 37 36 36 35 34 33 32 32 33 34 34 34 34
2 3 2 2 2 4 5 6 4 3 3 1 2 1 2 1 6 6 4 5 6 6 8 11 8 4 2 6 14 22 25 26 27 29 29 29 29 28 27 26 27 25 24 24 25 22 18 16 15 15 15 16 16 15 14 13 13 14 14 12 11 11 13 16 19 21 24 28 31 33 34 35 35 35 36 36 36 36 36 35 34 34 34 35 35 35 34
3 3 2 2 3 4 5 4 1 1 3 3 1 1 2 0 4 5 4 4 5 6 8 8 5 7 10 15 21 25 25 26 28 28 28 29 30 30 29 28 28 28 26 24 25 25 22 18 16 16 16 15 16 17 15 14 13 13 14 14 13 13 13 15 17 20 22 25 28 30 32 33 33 33 33 34 35 36 36 36 36 36 35 36 36 36 35
1 2 1 1 4 4 5 4 2 3 3 1 3 2 2 1 1 2 2 3 5 7 9 10 11 15 18 21 24 26 26 27 28 29 30 31 32 32 31 29 27 29 29 27 26 27 25 21 17 17 17 17 16 17 16 16 15 14 14 16 16 14 13 15 18 19 20 20 22 25 28 31 32 33 33 34 34 35 35 36 37 37 36 36 37 37 37
2 1 1 0 3 4 8 7 3 3 4 3 2 2 0 2 2 3 4 6 7 9 12 14 16 18 21 23 26 27 27 27 28 30 31 31 33 34 33 31 29 29 30 30 29 28 27 25 20 17 18 19 17 17 16 15 16 16 15 16 18 17 13 13 17 18 18 19 21 22 24 27 30 32 33 35 35 36 36 37 38 38 38 38 38 39 39
3 3 3 3 4 7 10 8 3 4 6 7 8 8 6 5 5 6 8 9 11 12 14 16 18 20 21 23 25 27 29 29 30 31 32 32 33 34 34 34 32 31 31 31 30 30 29 27 24 20 19 20 20 18 16 15 16 17 16 17 20 19 15 13 13 13 14 19 24 25 24 24 26 28 30 33 35 37 37 38 39 40 40 39 40 40 40
3 5 7 5 4 8 12 9 6 9 12 13 12 12 12 11 10 10 10 13 15 16 17 17 19 20 21 23 25 27 30 31 31 32 33 33 33 33 34 35 33 32 32 31 31 31 30 28 27 23 20 20 20 19 17 16 16 17 17 20 22 21 16 14 14 13 12 16 22 26 26 26 26 27 27 29 31 34 36 38 39 40 40 39 40 41 40
3 6 10 9 9 12 14 13 15 16 14 12 12 13 15 15 15 14 14 17 17 17 18 19 20 22 23 24 26 28 30 33 34 34 34 35 34 34 34 35 34 33 33 32 32 32 31 29 28 26 22 20 20 19 17 17 17 18 18 20 23 22 18 14 13 13 13 14 18 23 27 28 29 29 28 28 29 31 33 35 37 38 39 39 40 41 41
1 4 6 7 10 14 15 13 13 12 12 12 14 15 17 17 17 16 17 18 19 18 18 19 22 25 25 27 29 30 32 34 35 35 35 35 35 34 34 34 34 33 33 33 32 32 32 31 29 27 25 23 20 18 17 17 18 19 19 19 21 22 20 17 13 12 13 13 15 20 26 30 31 32 31 31 30 30 31 33 34 36 37 39 41 42 41
3 4 7 8 8 11 12 11 12 14 15 16 16 16 16 16 16 17 18 19 18 18 19 20 24 26 28 30 32 33 34 36 36 36 36 35 34 34 34 33 33 32 32 33 33 33 33 33 31 29 27 25 21 19 18 17 18 20 21 20 21 22 21 19 16 13 12 13 14 17 23 28 32 34 34 34 34 34 33 33 33 34 36 37 38 38 37
3 7 12 13 11 13 16 16 17 17 16 15 14 13 14 16 17 17 18 18 18 19 21 22 25 28 30 32 34 35 36 37 36 36 35 34 33 34 34 33 32 31 31 31 32 33 33 34 33 31 28 26 24 20 18 17 18 20 22 21 22 23 22 21 18 15 13 13 15 17 20 24 29 33 35 36 37 37 37 36 35 35 35 35 35 34 33
3 6 10 9 5 7 12 12 11 11 11 11 12 14 15 16 17 18 18 18 19 20 22 24 26 29 32 34 35 36 37 37 36 36 36 35 35 34 33 32 32 31 30 30 31 33 33 34 34 32 29 28 26 23 20 18 18 20 22 22 24 25 25 23 20 18 15 14 14 16 19 22 26 30 33 35 37 39 40 40 39 38 38 38 36 34 34
8 14 18 14 9 10 13 11 9 9 10 11 14 15 16 16 17 17 18 19 20 21 23 25 27 31 34 34 34 36 37 37 36 36 36 36 36 35 33 32 32 31 30 29 30 32 32 33 33 32 30 28 27 24 21 18 18 20 21 23 25 27 27 24 21 19 17 15 15 17 19 21 24 27 29 32 35 37 39 40 39 39 39 39 39 37 36
15 20 24 18 14 16 17 14 10 10 10 13 15 16 17 17 18 18 18 19 21 24 26 27 28 31 34 34 34 35 36 36 36 36 36 36 36 35 33 32 32 32 30 30 31 32 31 32 33 32 30 29 28 25 21 19 19 20 21 22 25 28 27 25 22 20 19 17 16 16 18 20 23 25 28 29 31 33 35 37 37 38 39 40 39 39 38
21 24 24 19 17 18 16 13 12 12 13 15 16 16 17 17 18 18 19 20 22 25 27 29 31 32 33 33 33 33 35 35 35 35 36 37 35 34 34 33 33 33 32 31 32 32 31 31 32 32 31 30 28 24 21 20 21 22 22 22 24 26 27 26 23 21 21 20 19 18 18 20 23 25 27 29 30 30 31 32 34 36 38 40 40 39 39
26 26 24 19 17 18 16 14 15 16 14 14 15 16 17 17 17 18 19 21 23 25 27 30 32 34 34 33 33 33 34 35 34 33 35 37 37 36 36 36 35 34 33 33 32 32 30 30 30 31 31 31 27 23 21 21 22 22 22 22 23 25 26 26 25 23 22 22 22 21 19 19 23 26 28 29 30 30 29 30 32 34 36 38 39 39 38
22 24 23 19 17 20 20 19 17 15 13 13 15 16 16 16 17 19 20 22 24 25 27 30 32 34 34 34 33 33 34 34 34 33 35 37 38 38 37 36 36 35 34 34 33 32 30 29 30 31 31 30 26 23 22 22 22 22 22 22 23 24 25 26 27 27 26 25 25 25 23 20 21 25 29 30 31 31 30 30 31 34 35 35 36 37 38
16 20 21 19 18 20 19 16 14 13 12 12 14 15 15 16 18 20 21 23 25 26 28 30 32 33 34 34 34 34 33 34 34 34 36 38 39 39 37 35 34 34 33 34 34 33 30 29 30 31 31 28 24 23 22 23 23 22 21 22 23 25 26 27 28 29 29 29 28 28 26 22 20 23 28 31 32 32 31 31 32 34 34 32 32 33 36
17 17 17 18 18 17 15 14 13 13 13 13 14 14 15 17 18 20 22 24 25 27 30 32 33 33 34 34 33 33 34 35 35 36 38 39 39 39 38 36 34 32 31 32 33 32 30 29 30 30 29 26 23 22 23 23 23 22 22 23 24 26 27 28 28 29 30 30 29 29 27 25 22 23 27 32 34 34 33 32 33 33 32 30 30 31 33
16 14 13 14 13 13 14 14 13 13 13 14 14 14 15 17 18 20 22 24 25 28 31 33 34 35 35 33 32 33 35 38 38 39 40 40 39 38 37 36 35 34 32 32 33 31 29 28 29 29 27 24 22 23 23 23 23 23 23 23 23 24 25 26 28 29 30 30 30 30 29 27 25 24 27 31 35 36 35 34 34 33 31 30 30 31 33
14 13 12 12 11 12 13 13 12 13 14 14 14 15 15 16 18 20 22 24 25 28 31 33 34 35 34 32 31 33 36 38 39 40 40 39 39 39 37 36 36 37 36 36 34 31 27 26 27 27 25 23 22 22 23 23 24 24 24 24 22 22 22 23 24 26 29 30 30 30 29 28 26 26 28 31 35 37 36 35 34 33 31 30 31 32 32
10 10 10 11 11 11 12 12 12 13 13 13 14 15 15 15 17 19 22 23 26 28 30 32 33 33 32 31 31 33 34 36 38 39 38 37 37 37 38 37 37 37 38 37 34 30 26 26 26 25 24 22 22 22 22 22 24 24 25 24 22 21 21 20 21 22 24 26 28 29 29 28 28 27 28 30 33 35 36 35 34 33 31 31 31 31 32
10 9 9 10 10 10 11 12 13 13 13 13 14 15 15 15 16 19 21 23 26 29 30 31 32 32 31 31 31 31 33 36 39 39 38 37 37 36 36 35 35 35 35 32 29 27 26 25 24 24 23 23 22 22 21 21 23 24 24 22 21 20 19 18 19 20 21 23 25 27 28 28 28 28 29 30 31 32 34 34 34 33 32 32 32 31 31
8 7 7 7 7 9 10 11 11 12 12 13 13 14 15 15 16 19 21 23 26 28 29 30 31 30 30 30 30 31 32 36 40 39 35 35 37 35 33 31 31 31 29 26 25 26 26 24 23 24 24 23 22 21 20 20 22 22 21 19 18 18 18 17 17 19 20 21 21 22 24 26 27 28 29 29 29 30 31 32 33 32 32 32 32 31 31
8 7 6 6 7 7 9 10 10 11 12 13 14 15 15 15 16 19 21 23 26 27 28 29 29 27 27 28 30 30 30 32 37 37 31 29 30 28 26 25 26 25 24 23 24 26 25 24 25 26 24 23 22 20 18 20 22 21 17 15 15 16 16 16 16 18 18 18 18 18 21 24 26 27 28 28 28 27 28 29 31 31 30 30 30 30 30
8 7 6 6 6 6 8 9 10 11 12 14 14 15 14 14 16 19 21 23 25 25 26 28 28 26 25 27 28 28 27 27 31 33 27 19 19 20 19 19 19 19 19 20 23 25 25 26 27 25 23 21 20 17 16 18 20 18 14 12 13 14 15 15 15 15 16 16 15 15 17 19 23 25 26 26 26 26 26 27 28 29 29 29 28 26 26
8 6 6 5 5 6 8 9 10 11 13 14 13 12 12 13 17 19 20 22 24 24 25 27 27 25 25 25 25 26 24 23 24 27 25 16 8 9 11 11 12 15 18 21 24 26 27 27 26 24 21 19 17 15 15 17 18 16 13 11 12 13 14 14 13 13 13 13 13 13 14 15 17 20 22 23 23 23 25 26 26 26 26 26 26 26 25
7 6 5 4 4 6 8 9 10 12 12 12 11 10 11 13 17 18 20 22 23 23 25 26 24 23 24 24 23 23 23 21 20 20 22 20 13 6 3 2 1 5 12 19 25 26 24 23 23 21 19 18 16 14 14 15 16 14 12 12 12 12 13 13 12 11 12 12 12 12 12 13 13 14 15 17 18 18 19 21 22 22 21 22 24 25 26
8 7 5 4 4 6 8 10 11 11 10 10 10 10 11 14 17 18 20 22 21 22 25 25 22 21 23 23 21 20 21 21 19 18 17 17 17 14 10 7 6 4 1 8 15 18 18 19 20 19 16 15 15 14 13 15 14 12 12 13 13 11 11 12 11 11 11 11 12 12 11 11 11 11 11 11 11 12 13 15 17 19 19 18 19 21 22
9 7 5 3 3 6 9 10 10 8 7 8 10 10 12 15 17 18 20 22 21 22 24 23 20 20 21 21 20 19 18 17 18 18 16 13 13 14 13 10 7 4 4 3 3 8 11 13 14 13 12 12 13 12 13 14 14 13 13 14 12 10 9 10 10 10 10 10 11 12 11 10 10 10 9 8 7 7 8 10 12 14 15 16 16 16 18
11 8 5 3 3 6 9 9 8 5 5 7 9 10 13 14 15 17 20 20 19 21 23 21 19 18 20 20 20 18 15 12 13 15 16 15 13 13 14 14 11 8 6 5 3 2 5 6 7 7 8 10 11 11 11 10 10 10 11 11 10 8 8 8 7 8 9 10 10 11 11 10 8 7 6 5 4 3 4 6 8 10 11 13 13 14 16
12 9 6 4 3 5 8 7 4 4 5 6 8 10 12 13 14 16 18 17 17 19 21 19 16 16 18 19 19 17 14 12 10 11 14 15 15 15 14 13 12 10 8 7 5 3 3 3 4 5 6 8 9 10 8 6 6 7 8 8 7 7 7 6 5 4 6 7 8 8 8 7 6 4 3 2 2 1 1 2 4 6 8 10 11 13 15
13 10 7 4 2 4 5 4 2 3 5 6 7 10 10 11 12 15 16 16 17 17 17 17 16 16 17 19 20 19 17 15 12 10 12 13 14 15 15 14 12 11 10 9 7 4 2 2 2 2 3 4 6 7 6 5 5 5 5 4 4 6 5 3 1 1 2 3 4 4 5 4 4 3 3 3 4 5 5 5 7 8 9 10 12 14 15
13 11 8 5 2 1 3 2 1 3 5 6 7 9 9 9 12 15 16 15 15 14 15 16 18 18 18 18 19 19 19 19 16 14 14 14 14 15 16 16 15 13 11 9 8 7 6 4 3 3 2 2 2 3 4 5 5 4 3 3 4 4 3 2 3 4 3 4 4 4 4 5 5 6 6 7 7 7 7 8 9 10 11 11 12 14 15
15 12 9 6 3 2 2 3 2 4 5 6 7 7 7 8 12 15 16 14 13 13 14 16 18 18 19 18 18 18 19 20 20 18 17 17 17 17 16 15 16 16 13 10 8 9 9 7 5 4 3 2 1 1 3 5 5 5 5 5 5 4 4 6 8 8 7 7 8 8 8 8 9 10 10 10 10 11 11 10 11 12 12 13 14 15 16
16 12 9 6 4 4 2 2 2 3 4 5 6 6 5 7 12 15 15 13 12 13 14 15 16 18 20 19 18 18 20 21 21 21 19 18 18 18 16 14 14 14 14 13 12 11 10 8 6 5 3 1 1 2 4 6 7 7 8 9 9 7 7 9 11 12 12 12 11 11 11 13 14 14 14 14 15 16 16 15 15 15 16 17 18 18 19
15 12 10 7 6 5 3 0 2 3 3 5 6 5 4 7 11 13 12 11 12 13 14 14 15 17 18 19 19 20 20 20 21 22 21 20 19 20 19 18 15 12 12 13 14 13 10 8 7 6 5 4 6 7 9 10 10 10 10 11 11 11 11 12 13 14 15 16 16 15 15 16 17 18 19 19 20 21 21 21 21 21 22 23 25 26 26
16 14 11 9 9 7 5 3 3 3 3 4 5 4 4 7 10 11 11 11 12 13 14 14 15 15 16 17 19 20 20 21 22 22 22 22 22 22 22 21 18 14 12 13 14 14 12 10 9 9 8 9 10 11 12 13 13 13 13 13 13 14 14 15 16 16 17 18 18 18 19 20 21 22 23 24 25 26 27 28 28 28 28 29 32 33 33
19 16 12 10 11 10 7 6 5 4 4 4 4 4 5 7 9 10 11 11 13 14 15 15 15 16 17 18 19 19 20 21 22 21 21 22 23 24 24 23 22 20 18 16 15 15 15 14 13 12 12 13 14 15 15 16 16 16 16 15 15 16 16 17 18 19 20 21 22 23 23 24 25 26 27 28 29 30 31 32 32 32 32 33 34 35 35
22 18 14 12 12 11 8 7 7 6 5 4 4 4 5 7 9 10 11 11 13 14 15 16 16 17 18 19 19 19 19 21 22 22 21 22 23 23 24 25 25 25 24 22 20 19 18 18 18 18 17 18 18 18 18 18 18 18 18 18 18 18 19 20 20 21 22 24 25 26 27 28 29 30 31 33 34 34 34 35 35 34 34 34 34 34 34
22 18 15 14 13 10 8 8 8 7 6 5 5 4 5 6 8 10 11 11 12 14 15 15 16 17 18 19 19 19 18 19 21 23 24 24 23 23 24 26 27 28 28 27 26 24 23 23 23 23 22 22 22 22 21 21 21 20 20 21 21 21 21 22 22 22 23 24 25 27 30 32 33 34 35 36 36 36 36 36 36 36 35 35 35 35 34
20 17 15 13 12 10 8 8 7 7 7 6 6 5 5 6 8 10 11 11 12 13 14 14 15 16 17 18 19 19 19 20 21 23 24 25 25 24 25 26 27 28 28 28 27 27 26 25 26 26 26 26 25 25 25 25 24 24 23 23 23 24 24 25 25 26 26 26 27 29 32 33 34 35 36 35 34 34 35 35 36 36 36 36 36 36 35
Wind_Direction
25 111 14 5 48 6 309 300 292 294 318 344 29 177 174 137 123 211 222 135 102 71 24 47 57 54 54 36 20 18 17 18 19 18 19 24 29 33 36 37 36 37 37 37 39 41 44 47 53 72 117 175 194 206 216 223 228 233 235 235 235 236 237 239 242 245 246 247 248 249 250 251 252 253 252 251 249 247 247 248 249 249 249 250 251 252 253
20 355 355 35 58 347 298 273 259 261 277 277 249 235 210 171 189 234 229 129 113 109 10 36 67 74 71 55 37 31 27 21 19 19 18 19 22 25 27 31 33 34 35 34 33 35 38 41 41 43 47 63 176 200 208 212 218 226 234 237 237 237 238 241 243 245 246 247 248 249 250 251 252 253 253 252 252 250 249 249 250 251 251 251 252 253 254
338 319 347 349 272 253 274 283 278 275 289 296 281 265 250 195 244 268 227 144 134 79 358 26 66 75 69 55 42 37 32 26 22 21 17 15 17 18 20 24 28 31 34 34 31 29 29 31 33 33 33 31 26 219 208 209 211 215 223 232 238 239 240 242 244 245 246 247 248 249 251 252 253 253 254 253 253 253 252 251 251 252 252 253 253 254 255
275 286 316 298 286 289 327 328 331 323 303 294 281 268 107 115 136 54 73 147 180 305 348 18 53 64 66 57 44 39 35 30 28 24 17 12 11 14 16 17 19 24 29 31 29 26 23 23 25 26 25 24 18 4 267 219 212 212 216 223 232 240 242 243 243 245 246 247 248 249 251 252 253 254 254 254 254 254 254 253 253 253 253 253 254 254 255
254 278 279 284 349 42 34 321 347 9 18 2 339 351 55 83 135 137 146 201 208 298 342 9 24 37 65 70 56 46 38 33 30 25 19 13 9 11 12 11 12 14 19 24 27 26 21 18 20 20 19 18 14 7 349 287 234 220 218 219 225 234 241 243 244 245 246 247 248 249 251 252 253 253 253 254 255 255 256 256 256 255 255 255 255 255 255
253 279 290 342 54 60 257 267 303 351 13 12 319 304 342 44 51 123 137 158 158 345 348 8 349 340 9 72 63 43 33 29 25 20 16 12 6 6 7 7 7 7 8 13 21 25 22 16 13 14 14 14 13 8 360 336 285 242 227 223 224 229 236 240 244 245 245 246 248 249 251 252 252 252 253 254 255 256 257 257 257 257 257 257 257 257 257
227 288 2 47 76 233 256 289 312 311 279 210 246 278 269 112 75 91 98 58 358 342 348 356 336 329 331 322 36 33 25 19 16 12 9 6 1 358 359 359 0 0 359 0 5 15 19 12 6 6 6 9 12 10 5 353 324 281 248 232 229 230 233 237 241 244 245 246 248 249 251 251 251 251 253 254 255 256 257 257 257 258 258 259 259 259 259
6 16 52 100 226 260 286 318 329 342 355 21 358 308 282 129 97 113 114 26 346 353 356 356 346 337 328 284 239 11 15 7 5 4 1 359 356 352 350 349 350 352 352 350 351 357 4 4 359 359 357 356 2 6 5 2 349 314 273 246 235 234 233 234 237 240 243 246 248 249 250 249 250 251 252 253 254 255 256 257 258 259 259 259 260 260 260
120 88 137 208 335 323 323 332 328 45 66 1 92 273 284 5 67 70 83 16 354 358 0 358 352 346 338 267 229 271 348 351 352 352 351 352 351 349 346 343 340 341 341 341 341 344 349 353 351 349 348 347 349 354 357 360 357 336 297 265 244 237 233 231 231 234 238 242 245 248 248 248 249 251 252 254 255 255 255 257 258 259 259 259 259 260 261
112 100 16 353 21 320 268 258 249 206 196 216 161 145 284 357 53 50 63 41 5 4 3 357 355 355 359 289 259 313 334 338 340 341 341 342 344 345 346 343 338 334 331 331 334 335 336 339 343 343 340 339 342 344 348 354 356 349 328 304 270 247 237 231 228 228 231 235 239 242 245 246 248 251 252 254 255 255 256 257 259 260 261 261 261 262 262
93 102 102 156 174 235 239 232 242 277 301 257 171 101 287 358 33 33 55 44 20 20 4 352 356 2 2 271 309 327 331 331 332 333 332 334 336 338 341 341 339 335 328 323 323 326 326 325 332 339 335 329 332 339 344 350 356 355 340 318 299 274 251 239 233 230 229 230 233 236 239 243 246 249 251 253 255 255 256 258 260 261 262 262 263 264 264
149 129 158 214 223 244 235 221 233 290 331 9 59 355 278 353 12 19 41 26 19 24 1 352 358 1 302 291 308 318 322 322 324 325 326 327 329 330 333 336 335 333 329 321 317 319 321 319 321 328 328 322 322 329 337 342 349 355 347 321 299 290 274 254 242 237 234 233 233 233 235 238 242 246 249 251 253 254 255 257 259 260 261 262 264 265 266
178 169 195 251 261 240 222 212 197 77 55 64 111 212 188 78 5 19 39 18 8 1 349 345 322 294 297 300 304 310 314 316 318 319 320 321 322 324 326 328 330 329 327 323 316 313 314 313 313 317 319 316 314 318 326 332 334 341 344 327 301 284 281 271 255 245 240 238 237 236 237 238 239 242 245 248 250 252 254 256 257 259 260 261 263 265 265
150 167 168 288 290 252 196 169 133 119 118 160 218 206 123 121 350 14 2 330 334 331 326 320 306 301 304 304 304 308 312 312 313 314 315 316 317 318 320 321 324 324 323 321 317 312 309 308 307 310 311 309 307 308 314 323 323 321 329 326 310 292 280 274 267 258 249 243 240 240 241 241 241 242 244 246 248 250 252 254 255 257 259 261 262 264 265
132 131 148 177 293 229 167 144 121 158 177 204 285 324 263 212 249 308 302 303 319 320 313 310 307 305 305 306 307 309 308 308 309 310 311 312 313 314 315 316 318 319 317 316 315 312 309 306 304 304 305 303 301 302 305 309 311 311 315 314 307 302 296 282 273 268 260 252 250 248 246 245 244 244 245 245 247 249 250 252 254 255 257 259 260 261 262
136 148 194 216 234 203 174 157 158 208 229 269 297 298 277 259 272 288 294 305 316 316 311 309 307 304 303 304 306 306 305 305 306 306 307 308 308 310 311 312 314 315 313 310 308 308 308 306 302 299 299 298 296 298 302 302 300 300 303 301 298 301 306 303 292 278 259 248 247 248 246 245 244 243 243 243 245 247 248 250 251 253 255 256 256 258 260
171 192 220 228 203 179 175 186 238 268 275 276 276 278 280 282 283 286 297 309 315 315 313 308 304 303 303 303 304 303 303 303 303 303 303 304 304 305 306 307 309 310 309 306 302 301 302 303 301 295 292 292 291 293 300 303 298 293 291 292 294 296 301 306 307 299 275 252 245 242 239 238 239 240 241 241 241 243 244 246 248 250 251 253 254 256 258
269 259 245 232 220 216 218 238 265 278 278 267 263 273 280 282 284 289 299 307 311 313 312 308 306 306 306 306 305 303 303 302 301 301 300 300 301 301 301 302 304 305 305 302 299 295 294 296 297 292 286 285 287 291 298 302 301 296 289 285 288 292 295 300 304 302 290 270 254 245 238 234 234 236 237 239 240 241 242 243 245 247 248 250 251 253 255
255 269 241 211 217 233 240 251 262 261 256 258 269 277 279 281 284 288 297 304 308 308 308 307 307 308 308 308 306 305 304 302 300 300 299 298 298 298 296 297 299 301 300 299 297 293 288 288 292 290 284 281 281 286 294 298 300 300 293 284 282 286 289 292 295 297 294 284 268 253 243 237 234 233 233 236 239 240 240 241 244 246 247 247 248 250 252
192 257 261 243 241 250 250 249 249 251 260 271 276 277 277 279 282 287 296 303 304 304 306 307 307 307 308 308 306 304 303 301 299 298 297 295 295 294 293 293 294 296 296 295 294 291 285 283 287 288 283 280 279 281 287 294 298 298 295 289 284 283 284 286 287 288 289 288 282 267 249 239 236 234 232 233 236 239 240 241 243 246 247 247 247 248 250
247 284 274 264 268 274 265 255 254 261 269 273 271 270 270 272 278 288 296 299 301 303 305 306 305 305 307 309 307 303 300 299 298 297 296 296 294 292 291 290 290 291 291 290 290 288 283 280 283 285 281 279 278 277 282 290 295 295 293 290 287 284 283 283 283 282 282 281 282 277 262 245 237 234 233 233 234 238 241 241 242 245 248 250 251 252 253
251 254 248 235 228 268 266 256 257 269 273 271 268 267 268 271 281 291 295 297 300 302 303 304 305 305 306 308 307 302 298 297 297 297 296 295 294 292 291 290 288 286 286 286 286 285 280 278 280 280 278 276 274 273 278 288 294 293 291 289 287 285 283 282 281 281 283 280 276 274 268 255 244 237 235 234 235 238 241 242 243 245 248 251 254 256 257
230 241 250 241 220 246 265 267 269 276 277 274 273 274 275 280 288 295 296 297 300 301 302 304 304 305 306 307 304 299 297 296 296 295 294 293 292 291 291 288 286 284 283 283 283 281 278 277 277 275 273 273 272 271 274 284 292 292 290 287 285 283 283 283 282 282 285 285 278 270 265 260 253 245 240 237 235 237 241 244 244 245 247 250 253 255 257
234 251 261 257 244 257 272 277 278 279 276 271 272 277 282 287 293 296 295 296 299 301 303 304 304 306 308 306 302 297 295 295 294 293 293 292 290 289 289 286 285 284 283 282 282 280 278 275 272 270 268 268 269 269 271 281 289 289 286 283 281 282 284 285 284 283 284 288 286 274 263 259 256 252 250 247 241 238 239 243 246 246 245 246 249 251 253
242 256 264 263 262 270 277 276 274 274 272 270 270 274 280 287 293 294 292 295 298 301 302 303 306 310 311 307 303 298 295 295 295 294 292 290 287 285 285 283 283 283 283 282 281 280 277 272 267 266 264 263 264 266 268 278 286 287 284 280 276 278 283 285 285 284 285 287 287 279 267 259 255 252 252 254 253 249 244 243 246 248 248 247 246 247 248
246 254 258 260 266 270 269 267 271 276 277 272 268 274 284 291 293 291 291 295 300 301 302 304 310 314 313 308 304 300 296 295 294 291 289 288 286 284 283 283 283 283 282 281 279 278 275 268 263 262 261 259 259 262 266 275 282 284 283 278 271 272 278 282 281 281 279 278 277 275 270 262 254 250 250 252 256 258 255 249 248 250 251 251 249 248 247
248 251 251 250 256 261 262 266 273 279 279 273 271 281 291 293 290 290 292 297 303 304 305 309 314 316 313 308 303 299 295 293 290 287 285 286 286 285 284 283 283 281 280 279 277 275 271 265 259 257 257 255 255 259 266 275 281 281 279 274 268 267 272 274 273 273 271 269 269 271 272 269 259 252 250 250 252 256 258 255 253 252 252 253 252 250 248
252 250 245 241 248 258 265 272 278 280 279 278 282 290 294 290 288 292 297 303 308 310 311 315 317 314 311 309 306 302 299 296 292 289 287 287 288 289 288 285 281 279 276 273 271 270 268 261 255 254 253 252 252 257 266 276 281 280 277 273 270 269 271 271 271 272 272 270 270 271 273 273 267 257 252 250 250 252 254 255 254 253 252 254 255 253 250
251 245 241 243 250 260 266 272 278 283 285 287 289 291 292 289 290 295 302 309 313 314 316 318 317 313 311 311 309 307 305 302 298 294 291 289 289 288 287 286 283 279 273 266 264 265 264 258 253 252 251 249 250 258 266 274 279 279 276 274 272 273 274 274 273 273 272 270 271 272 272 272 269 261 253 248 247 249 251 252 253 253 253 255 258 257 252
240 233 235 241 246 253 260 269 280 288 290 291 292 293 293 291 292 299 308 314 315 316 318 319 316 314 313 312 311 312 310 307 304 299 294 291 287 283 281 281 279 276 270 264 262 264 263 256 251 250 250 250 252 257 264 271 276 276 272 270 272 274 275 275 274 272 270 269 270 271 272 270 267 263 254 247 245 246 248 249 251 252 253 255 257 256 252
224 221 229 237 242 252 263 273 284 289 292 294 293 294 295 294 297 304 311 315 317 318 319 318 316 315 315 313 314 316 315 313 311 305 297 291 285 279 276 274 271 269 267 266 266 266 262 254 249 248 249 251 254 257 262 269 275 273 267 266 270 273 274 273 272 270 270 270 270 271 271 270 267 263 257 249 244 244 246 248 250 251 252 254 255 254 254
203 207 223 236 246 257 266 273 278 285 294 296 293 295 298 298 302 309 314 317 319 320 319 319 319 318 318 318 318 318 317 318 317 310 298 289 282 276 272 270 268 267 268 267 266 263 256 251 249 249 248 251 254 258 263 270 272 269 266 267 271 273 272 273 273 273 273 273 272 271 272 271 268 264 259 252 246 244 246 248 250 250 251 254 254 254 258
195 204 223 237 246 255 264 272 276 281 289 294 296 300 301 300 304 313 317 320 321 320 321 322 323 323 324 324 320 318 318 320 320 315 302 288 281 276 273 270 267 267 268 267 261 254 252 252 252 249 248 251 256 259 262 267 268 267 267 270 273 273 273 276 280 281 280 278 275 272 270 269 266 263 259 255 250 245 245 248 250 251 252 253 253 256 262
208 216 230 240 249 259 267 275 278 281 288 297 303 304 301 303 311 318 321 322 322 322 325 326 324 327 331 329 321 318 318 320 324 322 309 291 283 281 277 273 269 267 265 260 251 246 249 251 249 248 250 254 257 257 258 263 269 271 272 274 277 277 278 282 285 285 284 283 280 274 268 265 263 260 258 255 252 248 247 247 249 251 253 254 254 257 262
216 228 238 245 259 271 277 281 284 287 293 301 306 307 306 310 317 321 323 323 323 325 328 328 326 328 333 330 324 321 319 320 327 330 318 295 286 284 279 273 269 265 258 250 245 247 249 246 244 246 252 257 258 255 256 263 271 274 275 279 285 287 286 286 287 287 286 287 286 281 272 264 260 258 255 253 252 251 252 252 252 252 255 256 256 257 260
216 227 237 252 274 288 290 290 291 295 299 303 307 309 309 312 318 322 324 326 327 329 331 330 329 330 331 329 328 327 322 323 334 341 336 310 289 285 279 272 267 261 253 248 248 247 242 238 239 246 254 258 258 256 256 264 272 276 280 288 294 293 292 293 292 292 293 293 292 290 282 272 263 259 255 252 250 250 252 255 257 257 258 258 259 260 261
220 225 239 261 282 292 293 291 292 296 301 304 307 308 309 313 320 324 327 329 333 335 334 332 331 330 329 328 329 330 329 330 339 351 358 356 324 276 269 272 269 258 249 244 241 235 231 232 239 249 256 259 258 256 255 263 270 277 286 297 300 296 295 298 298 298 300 301 301 299 294 285 274 265 258 254 252 250 250 253 256 260 262 263 263 264 264
218 224 240 264 284 293 292 291 293 298 302 304 306 309 313 319 324 328 331 334 338 339 336 334 333 333 332 331 330 334 338 340 341 349 2 15 29 55 118 147 202 231 230 227 224 222 224 231 242 251 258 259 256 252 254 261 268 274 285 297 300 297 296 299 302 304 309 314 316 314 308 300 292 281 269 260 256 254 254 253 253 254 258 261 261 262 263
220 227 234 250 283 296 294 292 297 301 302 305 311 316 321 324 327 330 334 339 342 341 337 336 338 338 337 335 334 337 344 348 349 350 358 11 26 41 58 78 87 83 191 220 215 214 222 236 247 252 253 252 248 245 250 260 266 272 283 294 300 299 295 298 305 311 317 324 329 327 321 314 309 304 295 281 270 266 265 261 254 249 246 245 246 248 251
220 224 225 237 288 301 295 295 301 302 300 311 323 330 330 328 327 330 336 342 345 343 340 342 345 343 340 339 339 339 341 349 359 2 0 2 16 30 34 36 42 35 359 321 230 218 229 245 253 250 241 238 241 243 251 261 268 272 280 292 301 299 291 296 309 317 323 332 337 336 332 330 326 322 320 317 307 293 282 272 260 250 242 235 231 229 229
219 217 217 233 282 293 290 293 298 301 307 321 331 335 333 329 326 332 340 346 347 344 344 348 350 346 342 343 344 340 334 340 2 14 11 3 7 20 23 24 27 18 346 328 325 272 253 259 260 246 230 230 239 246 252 261 270 277 285 296 301 292 281 287 306 321 329 337 342 342 341 340 336 332 333 337 336 320 287 267 256 246 237 229 222 216 212
212 211 215 221 254 280 286 290 296 307 322 332 337 337 334 328 328 336 345 349 348 347 350 355 358 355 351 352 353 353 349 347 1 24 28 21 17 17 14 15 21 17 351 329 326 324 295 279 267 247 232 229 237 246 254 264 281 292 299 302 294 276 270 278 298 327 340 345 346 347 350 351 348 350 0 17 43 86 155 209 217 214 213 213 209 205 203
207 207 210 207 222 267 276 277 294 321 329 336 340 340 336 331 333 342 350 352 353 357 2 7 11 11 8 5 4 6 8 6 8 22 32 33 32 29 21 14 16 16 3 351 353 1 347 311 287 271 253 236 234 242 254 269 282 290 295 287 264 253 256 267 299 18 21 13 7 9 15 22 30 48 76 97 110 120 133 143 147 155 169 182 186 186 187
209 203 199 191 185 232 242 236 281 329 332 334 338 341 339 337 342 349 355 359 4 11 17 18 18 19 18 16 13 12 15 18 20 21 21 22 27 31 30 26 24 22 15 9 18 33 36 28 17 2 340 301 245 236 244 247 245 245 241 225 219 217 198 138 111 106 104 99 90 80 78 81 84 90 97 104 110 118 126 131 134 140 150 160 167 170 171
219 203 185 171 147 139 194 235 282 322 329 333 341 345 343 344 351 357 4 12 20 25 25 25 25 25 23 22 22 22 24 27 30 30 28 23 21 23 26 30 33 34 31 27 31 40 38 28 16 10 6 356 327 257 223 208 199 187 173 167 169 170 149 126 117 112 108 106 105 103 102 101 101 101 102 104 108 110 113 118 124 130 134 138 144 150 153
220 200 177 155 126 122 161 241 307 338 337 344 356 360 353 354 1 7 16 26 30 28 28 32 34 32 29 27 26 27 29 32 35 37 37 36 32 28 27 30 38 44 45 43 39 36 33 30 28 29 32 45 152 168 161 157 155 153 151 147 142 138 130 123 119 116 113 110 109 109 108 107 106 105 105 106 107 107 109 113 117 120 123 124 127 131 136
207 188 169 147 123 123 142 139 20 12 357 5 17 18 8 8 13 20 30 36 32 29 32 37 37 35 33 32 31 30 31 32 35 38 41 42 41 37 34 33 37 45 55 58 54 48 43 47 56 65 82 112 131 133 129 126 125 129 131 128 123 121 119 116 114 114 115 114 114 113 113 110 108 107 106 106 105 106 108 110 111 114 116 118 118 118 121
190 179 166 142 120 115 114 90 53 27 17 32 46 46 32 26 27 34 42 43 38 37 40 40 38 38 38 38 38 39 39 37 36 38 39 41 43 43 41 40 41 46 58 68 69 66 64 67 74 84 96 105 109 112 114 114 112 112 112 110 109 109 109 108 108 108 109 110 110 110 108 106 104 103 103 103 103 104 106 107 109 111 113 114 115 115 115
177 174 167 142 120 111 103 84 61 42 38 58 75 74 55 40 39 46 53 53 49 48 49 47 46 46 45 43 43 44 46 46 45 44 45 47 49 50 50 49 47 47 53 63 70 74 75 77 79 86 93 96 97 99 102 103 103 103 103 104 104 104 104 105 107 108 108 107 106 104 103 102 101 100 100 100 100 102 103 105 107 109 111 111 111 112 112
168 169 160 137 120 110 93 75 63 56 56 68 85 86 70 57 55 59 62 61 60 59 58 56 54 51 46 42 41 42 45 49 51 50 51 53 54 54 56 58 56 52 52 57 64 72 77 80 81 83 86 89 90 91 93 95 96 98 99 101 102 104 104 104 105 107 107 108 107 106 106 105 104 103 102 101 100 100 100 101 103 104 106 106 105 104 105
164 165 153 134 122 110 87 70 64 61 62 73 91 96 85 74 73 73 71 68 67 65 61 57 54 50 46 43 42 43 46 50 52 51 52 55 56 56 58 62 62 59 57 58 61 65 70 75 78 81 84 85 85 87 88 89 91 93 95 97 99 100 102 103 104 105 107 107 108 108 108 107 106 104 103 102 101 101 101 100 100 100 100 100 100 100 99
163 162 151 138 125 109 89 73 65 63 67 79 93 97 90 85 88 87 82 74 68 64 58 52 50 50 52 53 51 50 51 53 54 53 53 55 58 60 62 62 62 61 61 60 61 62 64 67 72 76 80 82 83 85 87 88 88 89 90 91 93 94 96 98 100 101 103 103 104 104 104 103 102 101 100 99 99 99 99 98 97 97 96 96 96 97 97